AMX249T MMTG-MMUN

Flight info

Callsign AMX249T
Flight time 1h 19m
Altitude 35000
Route TGZ1B TGZ V51 SAXAV/N0464F350 DCT PAULE PAULE3G
Aircraft B738/M-SDE2E3FGHIRWXY/LB1

Departure

Time 2026-04-21 19:56
Airport Angel Albino Corzo International Airport (MMTG)

Arrival

Time 2026-04-21 21:15
Airport Cancún International Airport (MMUN)
Time Latitude Longitude Altitude Speed Heading
2026-04-21 19:23 16.55982 -93.02012 1514 ft 0 kts 355°
2026-04-21 19:47 16.55981 -93.02012 1514 ft 1 kts 355°
2026-04-21 19:47 16.55964 -93.02011 1514 ft 3 kts
2026-04-21 19:47 16.55946 -93.02016 1514 ft 3 kts 32°
2026-04-21 19:47 16.55930 -93.02029 1514 ft 3 kts 53°
2026-04-21 19:48 16.55925 -93.02036 1512 ft 0 kts 58°
2026-04-21 19:51 16.55926 -93.02035 1514 ft 1 kts 58°
2026-04-21 19:51 16.55939 -93.02027 1514 ft 1 kts 341°
2026-04-21 19:52 16.55937 -93.02034 1514 ft 1 kts 238°
2026-04-21 19:52 16.55919 -93.02051 1513 ft 6 kts 229°
2026-04-21 19:52 16.55883 -93.02108 1513 ft 13 kts 239°
2026-04-21 19:52 16.55808 -93.02165 1511 ft 17 kts 171°
2026-04-21 19:53 16.55688 -93.02092 1513 ft 22 kts 148°
2026-04-21 19:53 16.55540 -93.01999 1513 ft 28 kts 148°
2026-04-21 19:53 16.55427 -93.01926 1511 ft 26 kts 148°
2026-04-21 19:53 16.55303 -93.01886 1511 ft 12 kts 219°
2026-04-21 19:54 16.55249 -93.01967 1511 ft 5 kts 240°
2026-04-21 19:54 16.55236 -93.01993 1511 ft 5 kts 259°
2026-04-21 19:54 16.55249 -93.02013 1511 ft 0 kts 324°
2026-04-21 19:55 16.55270 -93.02029 1511 ft 24 kts 326°
2026-04-21 19:56 16.55660 -93.02274 1512 ft 105 kts 328°
2026-04-21 19:56 16.56488 -93.02801 1517 ft 172 kts 329°
2026-04-21 19:56 16.57642 -93.03493 1940 ft 202 kts 329°
2026-04-21 19:56 16.58872 -93.04250 2861 ft 207 kts 329°
2026-04-21 19:57 16.60133 -93.05040 3613 ft 218 kts 329°
2026-04-21 19:57 16.61495 -93.05910 3874 ft 240 kts 330°
2026-04-21 19:57 16.62956 -93.06843 4316 ft 252 kts 330°
2026-04-21 19:57 16.64514 -93.07833 4716 ft 270 kts 330°
2026-04-21 19:58 16.66136 -93.08858 5507 ft 274 kts 330°
2026-04-21 19:58 16.67786 -93.09891 6366 ft 276 kts 330°
2026-04-21 19:58 16.69448 -93.10927 7182 ft 280 kts 330°
2026-04-21 19:58 16.71138 -93.11980 7928 ft 286 kts 330°
2026-04-21 19:59 16.72855 -93.13045 8754 ft 288 kts 333°
2026-04-21 19:59 16.74748 -93.13693 9461 ft 290 kts 359°
2026-04-21 19:59 16.76721 -93.13340 10202 ft 290 kts 25°
2026-04-21 19:59 16.78419 -93.12117 10530 ft 309 kts 49°
2026-04-21 20:00 16.79501 -93.10101 10724 ft 331 kts 70°
2026-04-21 20:00 16.80078 -93.07699 10890 ft 352 kts 81°
2026-04-21 20:00 16.80347 -93.05116 11246 ft 364 kts 86°
2026-04-21 20:00 16.80414 -93.02456 11859 ft 368 kts 91°
2026-04-21 20:01 16.80223 -92.99783 12535 ft 371 kts 97°
2026-04-21 20:01 16.79744 -92.97129 13188 ft 374 kts 104°
2026-04-21 20:01 16.78979 -92.94525 13789 ft 378 kts 110°
2026-04-21 20:01 16.77948 -92.91989 14392 ft 381 kts 116°
2026-04-21 20:02 16.76768 -92.89499 14967 ft 385 kts 109°
2026-04-21 20:02 16.76338 -92.86757 15540 ft 386 kts 88°
2026-04-21 20:02 16.76816 -92.84039 16125 ft 388 kts 71°
2026-04-21 20:02 16.78017 -92.81476 16660 ft 391 kts 54°
2026-04-21 20:03 16.79841 -92.79355 17185 ft 394 kts 45°
2026-04-21 20:03 16.81816 -92.77346 17644 ft 398 kts 44°
2026-04-21 20:03 16.83830 -92.75341 18115 ft 402 kts 44°
2026-04-21 20:03 16.85854 -92.73317 18589 ft 404 kts 44°
2026-04-21 20:04 16.87881 -92.71271 19032 ft 408 kts 45°
2026-04-21 20:04 16.89920 -92.69196 19497 ft 411 kts 45°
2026-04-21 20:04 16.91973 -92.67094 19891 ft 415 kts 45°
2026-04-21 20:04 16.94011 -92.65000 20278 ft 418 kts 45°
2026-04-21 20:05 16.96090 -92.62862 20706 ft 420 kts 45°
2026-04-21 20:05 16.98185 -92.60706 21072 ft 424 kts 45°
2026-04-21 20:05 17.00292 -92.58538 21467 ft 427 kts 45°
2026-04-21 20:05 17.02414 -92.56355 21838 ft 430 kts 44°
2026-04-21 20:06 17.04533 -92.54133 22176 ft 433 kts 48°
2026-04-21 20:06 17.06290 -92.51562 22487 ft 436 kts 58°
2026-04-21 20:06 17.07831 -92.48824 22836 ft 439 kts 60°
2026-04-21 20:06 17.09332 -92.46037 23149 ft 442 kts 60°
2026-04-21 20:07 17.10841 -92.43215 23468 ft 445 kts 60°
2026-04-21 20:07 17.12363 -92.40394 23776 ft 447 kts 60°
2026-04-21 20:07 17.13912 -92.37556 24054 ft 450 kts 59°
2026-04-21 20:07 17.15480 -92.34715 24340 ft 453 kts 59°
2026-04-21 20:08 17.17068 -92.31860 24633 ft 454 kts 59°
2026-04-21 20:08 17.18669 -92.28992 24899 ft 458 kts 59°
2026-04-21 20:08 17.20279 -92.26113 25153 ft 460 kts 59°
2026-04-21 20:08 17.21883 -92.23246 25433 ft 462 kts 59°
2026-04-21 20:09 17.23244 -92.20813 25627 ft 465 kts 59°
2026-04-21 20:09 17.24881 -92.17884 25888 ft 467 kts 59°
2026-04-21 20:09 17.26511 -92.14967 26118 ft 470 kts 59°
2026-04-21 20:09 17.28163 -92.12007 26370 ft 472 kts 59°
2026-04-21 20:10 17.29817 -92.09042 26613 ft 474 kts 59°
2026-04-21 20:10 17.31483 -92.06054 26832 ft 476 kts 59°
2026-04-21 20:10 17.33088 -92.03176 27070 ft 478 kts 59°
2026-04-21 20:10 17.34755 -92.00183 27279 ft 480 kts 59°
2026-04-21 20:11 17.36341 -91.97336 27447 ft 483 kts 59°
2026-04-21 20:11 17.38037 -91.94290 27665 ft 486 kts 60°
2026-04-21 20:11 17.39738 -91.91231 27893 ft 487 kts 60°
2026-04-21 20:11 17.41447 -91.88155 28108 ft 489 kts 60°
2026-04-21 20:12 17.43160 -91.85072 28307 ft 491 kts 60°
2026-04-21 20:12 17.44881 -91.81974 28513 ft 493 kts 60°
2026-04-21 20:12 17.46607 -91.78864 28721 ft 495 kts 60°
2026-04-21 20:12 17.48339 -91.75744 28915 ft 496 kts 60°
2026-04-21 20:13 17.50075 -91.72615 29178 ft 496 kts 60°
2026-04-21 20:13 17.51805 -91.69496 29493 ft 496 kts 60°
2026-04-21 20:13 17.53536 -91.66371 29771 ft 496 kts 60°
2026-04-21 20:13 17.55272 -91.63238 30044 ft 496 kts 60°
2026-04-21 20:14 17.57003 -91.60111 30326 ft 496 kts 60°
2026-04-21 20:14 17.58732 -91.56987 30634 ft 495 kts 60°
2026-04-21 20:14 17.60464 -91.53856 30904 ft 496 kts 60°
2026-04-21 20:14 17.62188 -91.50738 31196 ft 495 kts 60°
2026-04-21 20:15 17.63912 -91.47618 31517 ft 494 kts 60°
2026-04-21 20:15 17.65635 -91.44499 31799 ft 494 kts 60°
2026-04-21 20:15 17.67357 -91.41380 32072 ft 494 kts 60°
2026-04-21 20:15 17.69080 -91.38259 32334 ft 494 kts 60°
2026-04-21 20:16 17.70741 -91.35250 32639 ft 494 kts 60°
2026-04-21 20:16 17.72466 -91.32120 32924 ft 494 kts 60°
2026-04-21 20:16 17.74181 -91.29006 33230 ft 493 kts 60°
2026-04-21 20:16 17.75894 -91.25895 33535 ft 492 kts 60°
2026-04-21 20:17 17.77606 -91.22786 33765 ft 492 kts 60°
2026-04-21 20:17 17.79319 -91.19673 34012 ft 493 kts 60°
2026-04-21 20:17 17.81035 -91.16554 34262 ft 493 kts 60°
2026-04-21 20:17 17.82743 -91.13447 34561 ft 492 kts 59°
2026-04-21 20:18 17.83897 -91.11345 34771 ft 491 kts 60°
2026-04-21 20:18 17.86154 -91.07238 35037 ft 492 kts 59°
2026-04-21 20:18 17.87869 -91.04115 35020 ft 494 kts 59°
2026-04-21 20:19 17.91236 -90.97977 35020 ft 491 kts 59°
2026-04-21 20:19 17.94628 -90.91786 35026 ft 488 kts 59°
2026-04-21 20:20 17.98001 -90.85625 35029 ft 486 kts 59°
2026-04-21 20:20 18.01364 -90.79479 35039 ft 485 kts 59°
2026-04-21 20:21 18.04723 -90.73333 35051 ft 491 kts 59°
2026-04-21 20:21 18.08149 -90.67056 35041 ft 496 kts 59°
2026-04-21 20:22 18.11586 -90.60754 35033 ft 497 kts 59°
2026-04-21 20:22 18.16742 -90.51289 35033 ft 497 kts 59°
2026-04-21 20:23 18.20174 -90.44981 35034 ft 496 kts 59°
2026-04-21 20:23 18.23601 -90.38675 35037 ft 495 kts 59°
2026-04-21 20:24 18.27017 -90.32383 35044 ft 495 kts 59°
2026-04-21 20:24 18.30428 -90.26096 35046 ft 494 kts 60°
2026-04-21 20:25 18.33824 -90.19829 35043 ft 493 kts 60°
2026-04-21 20:25 18.37219 -90.13558 35045 ft 493 kts 60°
2026-04-21 20:26 18.40607 -90.07296 35051 ft 492 kts 60°
2026-04-21 20:26 18.43990 -90.01033 35040 ft 492 kts 60°
2026-04-21 20:27 18.47316 -89.94871 35049 ft 491 kts 60°
2026-04-21 20:27 18.50693 -89.88607 35046 ft 492 kts 60°
2026-04-21 20:28 18.54073 -89.82332 35050 ft 493 kts 59°
2026-04-21 20:28 18.57456 -89.76044 35057 ft 493 kts 59°
2026-04-21 20:29 18.60843 -89.69743 35054 ft 494 kts 59°
2026-04-21 20:29 18.64230 -89.63436 35056 ft 495 kts 59°
2026-04-21 20:30 18.67630 -89.57099 35057 ft 496 kts 59°
2026-04-21 20:30 18.71032 -89.50752 35062 ft 497 kts 59°
2026-04-21 20:31 18.74409 -89.44443 35063 ft 497 kts 59°
2026-04-21 20:31 18.77807 -89.38089 35063 ft 497 kts 59°
2026-04-21 20:32 18.81204 -89.31731 35067 ft 497 kts 59°
2026-04-21 20:32 18.84600 -89.25370 35060 ft 497 kts 59°
2026-04-21 20:33 18.87995 -89.19001 35064 ft 497 kts 59°
2026-04-21 20:33 18.91381 -89.12643 35068 ft 497 kts 59°
2026-04-21 20:34 18.94767 -89.06281 35062 ft 497 kts 59°
2026-04-21 20:34 18.98135 -88.99942 35067 ft 496 kts 59°
2026-04-21 20:35 19.01470 -88.93660 35070 ft 496 kts 59°
2026-04-21 20:35 19.04830 -88.87325 35066 ft 496 kts 59°
2026-04-21 20:36 19.07658 -88.81987 35065 ft 496 kts 59°
2026-04-21 20:36 19.11577 -88.74584 35065 ft 497 kts 59°
2026-04-21 20:37 19.14408 -88.69230 35062 ft 497 kts 59°
2026-04-21 20:37 19.17762 -88.62880 35059 ft 497 kts 59°
2026-04-21 20:38 19.21139 -88.56480 35063 ft 498 kts 59°
2026-04-21 20:38 19.24519 -88.50071 35066 ft 498 kts 59°
2026-04-21 20:39 19.27897 -88.43652 35075 ft 499 kts 59°
2026-04-21 20:39 19.31280 -88.37221 35079 ft 499 kts 59°
2026-04-21 20:40 19.34636 -88.30835 35071 ft 500 kts 59°
2026-04-21 20:40 19.38018 -88.24390 35075 ft 500 kts 59°
2026-04-21 20:41 19.41402 -88.17937 35070 ft 501 kts 59°
2026-04-21 20:41 19.44779 -88.11489 35074 ft 501 kts 59°
2026-04-21 20:42 19.48182 -88.04982 34630 ft 508 kts 59°
2026-04-21 20:42 19.49896 -88.01704 34021 ft 507 kts 59°
2026-04-21 20:42 19.51553 -87.98533 33384 ft 508 kts 59°
2026-04-21 20:43 19.53263 -87.95257 32693 ft 508 kts 59°
2026-04-21 20:43 19.54974 -87.91977 32010 ft 509 kts 59°
2026-04-21 20:43 19.56682 -87.88700 31521 ft 504 kts 59°
2026-04-21 20:43 19.58371 -87.85459 31006 ft 500 kts 59°
2026-04-21 20:44 19.60048 -87.82243 30500 ft 496 kts 59°
2026-04-21 20:44 19.61711 -87.79050 30020 ft 493 kts 59°
2026-04-21 20:44 19.63359 -87.75881 29505 ft 488 kts 59°
2026-04-21 20:44 19.64971 -87.72779 29008 ft 485 kts 59°
2026-04-21 20:45 19.66593 -87.69661 28493 ft 481 kts 59°
2026-04-21 20:45 19.68204 -87.66559 27995 ft 477 kts 59°
2026-04-21 20:45 19.69800 -87.63485 27498 ft 472 kts 59°
2026-04-21 20:45 19.71340 -87.60517 27015 ft 468 kts 59°
2026-04-21 20:46 19.72903 -87.57504 26521 ft 463 kts 59°
2026-04-21 20:46 19.74450 -87.54520 26034 ft 459 kts 59°
2026-04-21 20:46 19.75982 -87.51564 25559 ft 455 kts 59°
2026-04-21 20:46 19.77496 -87.48638 25071 ft 450 kts 59°
2026-04-21 20:47 19.78996 -87.45743 24577 ft 445 kts 59°
2026-04-21 20:47 19.80478 -87.42889 24160 ft 438 kts 59°
2026-04-21 20:47 19.81941 -87.40119 24049 ft 423 kts 56°
2026-04-21 20:47 19.83557 -87.37559 23855 ft 412 kts 52°
2026-04-21 20:48 19.85253 -87.35139 23681 ft 403 kts 50°
2026-04-21 20:48 19.86949 -87.32791 23514 ft 401 kts 50°
2026-04-21 20:48 19.88668 -87.30412 23376 ft 410 kts 51°
2026-04-21 20:48 19.90378 -87.28016 23206 ft 413 kts 51°
2026-04-21 20:49 19.92095 -87.25576 23026 ft 411 kts 51°
2026-04-21 20:49 19.93792 -87.23141 22853 ft 408 kts 52°
2026-04-21 20:49 19.95489 -87.20691 22690 ft 406 kts 52°
2026-04-21 20:49 19.97156 -87.18279 22519 ft 404 kts 52°
2026-04-21 20:50 19.98792 -87.15906 22359 ft 403 kts 52°
2026-04-21 20:50 20.00443 -87.13511 22185 ft 402 kts 52°
2026-04-21 20:50 20.02096 -87.11113 22033 ft 401 kts 52°
2026-04-21 20:50 20.03740 -87.08727 21870 ft 400 kts 51°
2026-04-21 20:51 20.05388 -87.06337 21712 ft 400 kts 52°
2026-04-21 20:51 20.07032 -87.03949 21551 ft 400 kts 52°
2026-04-21 20:51 20.08678 -87.01558 21391 ft 400 kts 52°
2026-04-21 20:51 20.10275 -86.99237 21232 ft 400 kts 52°
2026-04-21 20:52 20.11917 -86.96849 21066 ft 400 kts 52°
2026-04-21 20:52 20.13556 -86.94466 20913 ft 399 kts 52°
2026-04-21 20:52 20.15194 -86.92083 20743 ft 398 kts 52°
2026-04-21 20:52 20.16829 -86.89704 20580 ft 398 kts 52°
2026-04-21 20:53 20.18457 -86.87335 20415 ft 397 kts 52°
2026-04-21 20:53 20.20084 -86.84964 20261 ft 395 kts 52°
2026-04-21 20:53 20.21703 -86.82605 20084 ft 394 kts 52°
2026-04-21 20:53 20.23333 -86.80241 19578 ft 398 kts 52°
2026-04-21 20:54 20.24977 -86.77867 19098 ft 397 kts 52°
2026-04-21 20:54 20.26595 -86.75530 18567 ft 388 kts 52°
2026-04-21 20:54 20.28179 -86.73240 18010 ft 379 kts 52°
2026-04-21 20:54 20.29721 -86.71010 17533 ft 370 kts 52°
2026-04-21 20:55 20.31234 -86.68821 17066 ft 364 kts 52°
2026-04-21 20:55 20.32738 -86.66645 16621 ft 364 kts 52°
2026-04-21 20:55 20.34239 -86.64471 16153 ft 362 kts 52°
2026-04-21 20:55 20.35710 -86.62341 15692 ft 353 kts 52°
2026-04-21 20:56 20.37408 -86.60529 15216 ft 342 kts 31°
2026-04-21 20:56 20.39559 -86.59592 14873 ft 329 kts 11°
2026-04-21 20:56 20.41788 -86.59406 14589 ft 316 kts 354°
2026-04-21 20:56 20.43915 -86.59842 14329 ft 307 kts 346°
2026-04-21 20:57 20.45962 -86.60436 14058 ft 303 kts 344°
2026-04-21 20:57 20.47998 -86.61052 13811 ft 306 kts 345°
2026-04-21 20:57 20.50061 -86.61672 13559 ft 310 kts 345°
2026-04-21 20:57 20.52144 -86.62288 13287 ft 310 kts 345°
2026-04-21 20:58 20.54221 -86.62895 13013 ft 308 kts 345°
2026-04-21 20:58 20.56288 -86.63492 12743 ft 307 kts 345°
2026-04-21 20:58 20.58343 -86.64084 12481 ft 305 kts 346°
2026-04-21 20:58 20.60390 -86.64674 12210 ft 304 kts 346°
2026-04-21 20:59 20.62427 -86.65260 11943 ft 303 kts 346°
2026-04-21 20:59 20.64463 -86.65845 11649 ft 303 kts 346°
2026-04-21 20:59 20.66494 -86.66430 11339 ft 302 kts 346°
2026-04-21 20:59 20.68523 -86.67014 11051 ft 303 kts 346°
2026-04-21 21:00 20.70561 -86.67601 10750 ft 302 kts 346°
2026-04-21 21:00 20.72566 -86.68178 10461 ft 302 kts 346°
2026-04-21 21:00 20.74586 -86.68760 10147 ft 298 kts 346°
2026-04-21 21:00 20.76573 -86.69332 9917 ft 289 kts 346°
2026-04-21 21:01 20.78484 -86.69883 9585 ft 283 kts 346°
2026-04-21 21:01 20.80352 -86.70423 9329 ft 274 kts 345°
2026-04-21 21:01 20.82140 -86.71039 9026 ft 268 kts 331°
2026-04-21 21:01 20.83506 -86.72323 8812 ft 257 kts 308°
2026-04-21 21:02 20.84503 -86.73853 8619 ft 254 kts 304°
2026-04-21 21:02 20.85479 -86.75436 8374 ft 255 kts 304°
2026-04-21 21:02 20.86455 -86.77023 8133 ft 255 kts 304°
2026-04-21 21:02 20.87430 -86.78600 7903 ft 253 kts 304°
2026-04-21 21:03 20.88416 -86.80188 7665 ft 252 kts 304°
2026-04-21 21:03 20.89372 -86.81719 7448 ft 250 kts 304°
2026-04-21 21:03 20.90335 -86.83260 7221 ft 248 kts 304°
2026-04-21 21:03 20.91295 -86.84791 6990 ft 247 kts 304°
2026-04-21 21:04 20.92250 -86.86313 6776 ft 246 kts 304°
2026-04-21 21:04 20.93202 -86.87831 6502 ft 244 kts 304°
2026-04-21 21:04 20.94145 -86.89337 6046 ft 244 kts 304°
2026-04-21 21:04 20.95079 -86.90832 5723 ft 239 kts 304°
2026-04-21 21:05 20.96009 -86.92318 5523 ft 242 kts 304°
2026-04-21 21:05 20.96949 -86.93819 5309 ft 244 kts 304°
2026-04-21 21:05 20.97897 -86.95331 5116 ft 245 kts 305°
2026-04-21 21:05 20.98829 -86.96823 4925 ft 245 kts 305°
2026-04-21 21:06 20.99774 -86.98335 4726 ft 246 kts 305°
2026-04-21 21:06 21.00723 -86.99846 4538 ft 244 kts 305°
2026-04-21 21:06 21.01665 -87.01358 4321 ft 245 kts 305°
2026-04-21 21:06 21.02601 -87.02855 4104 ft 237 kts 305°
2026-04-21 21:07 21.03493 -87.04283 3904 ft 225 kts 305°
2026-04-21 21:07 21.04351 -87.05660 3759 ft 222 kts 306°
2026-04-21 21:07 21.05212 -87.07033 3596 ft 221 kts 306°
2026-04-21 21:07 21.06067 -87.08403 3413 ft 223 kts 306°
2026-04-21 21:08 21.06919 -87.09767 3234 ft 216 kts 306°
2026-04-21 21:08 21.07845 -87.10981 3048 ft 205 kts 329°
2026-04-21 21:08 21.09124 -87.11388 3000 ft 190 kts
2026-04-21 21:08 21.10399 -87.11093 2976 ft 186 kts 31°
2026-04-21 21:09 21.11450 -87.10354 2986 ft 176 kts 35°
2026-04-21 21:09 21.12457 -87.09643 2979 ft 170 kts 36°
2026-04-21 21:09 21.13439 -87.08946 2976 ft 169 kts 36°
2026-04-21 21:09 21.14428 -87.08239 2991 ft 172 kts 36°
2026-04-21 21:10 21.15429 -87.07522 2987 ft 174 kts 36°
2026-04-21 21:10 21.16204 -87.06569 2950 ft 171 kts 75°
2026-04-21 21:10 21.16042 -87.05355 2998 ft 170 kts 119°
2026-04-21 21:10 21.15412 -87.04266 2991 ft 175 kts 117°
2026-04-21 21:11 21.14791 -87.03149 2980 ft 174 kts 119°
2026-04-21 21:11 21.14136 -87.02059 2970 ft 175 kts 121°
2026-04-21 21:11 21.13463 -87.00971 2814 ft 173 kts 121°
2026-04-21 21:11 21.12815 -86.99930 2590 ft 164 kts 121°
2026-04-21 21:12 21.12186 -86.98922 2391 ft 163 kts 121°
2026-04-21 21:12 21.11562 -86.97924 2210 ft 156 kts 121°
2026-04-21 21:12 21.10973 -86.96979 1969 ft 149 kts 121°
2026-04-21 21:12 21.10409 -86.96066 1779 ft 146 kts 121°
2026-04-21 21:13 21.09844 -86.95162 1634 ft 144 kts 121°
2026-04-21 21:13 21.09296 -86.94282 1402 ft 139 kts 121°
2026-04-21 21:13 21.08763 -86.93423 1221 ft 139 kts 121°
2026-04-21 21:13 21.08222 -86.92556 1029 ft 140 kts 122°
2026-04-21 21:14 21.07682 -86.91690 836 ft 140 kts 121°
2026-04-21 21:14 21.07142 -86.90820 657 ft 141 kts 122°
2026-04-21 21:14 21.06595 -86.89947 460 ft 142 kts 122°
2026-04-21 21:14 21.06052 -86.89071 273 ft 141 kts 122°
2026-04-21 21:15 21.05507 -86.88191 85 ft 143 kts 121°
2026-04-21 21:15 21.04984 -86.87356 36 ft 120 kts 123°
2026-04-21 21:15 21.04632 -86.86793 38 ft 68 kts 124°
2026-04-21 21:15 21.04473 -86.86541 39 ft 30 kts 124°
2026-04-21 21:16 21.04380 -86.86439 36 ft 28 kts 141°
2026-04-21 21:16 21.04223 -86.86351 40 ft 14 kts 154°
2026-04-21 21:16 21.04137 -86.86306 41 ft 15 kts 152°
2026-04-21 21:16 21.04063 -86.86228 41 ft 16 kts 155°
2026-04-21 21:17 21.03965 -86.86268 58 ft 15 kts 212°
2026-04-21 21:17 21.03870 -86.86333 62 ft 18 kts 213°
2026-04-21 21:17 21.03746 -86.86421 51 ft 25 kts 213°
2026-04-21 21:17 21.03581 -86.86538 42 ft 29 kts 213°
2026-04-21 21:18 21.03417 -86.86655 42 ft 25 kts 214°
2026-04-21 21:18 21.03345 -86.86740 41 ft 14 kts 276°
2026-04-21 21:18 21.03400 -86.86840 41 ft 17 kts 303°
2026-04-21 21:18 21.03471 -86.86951 39 ft 19 kts 303°
2026-04-21 21:19 21.03545 -86.87071 42 ft 16 kts 303°
2026-04-21 21:19 21.03587 -86.87139 40 ft 4 kts 302°
2026-04-21 21:19 21.03606 -86.87149 42 ft 3 kts
2026-04-21 21:19 21.03628 -86.87140 40 ft 3 kts 27°
2026-04-21 21:20 21.03650 -86.87125 42 ft 4 kts 33°
2026-04-21 21:20 21.03668 -86.87112 42 ft 2 kts 34°
2026-04-21 21:20 21.03675 -86.87107 40 ft 0 kts 34°